Weather History for Daytona Beach, FL

Change the Weather History Date:

Friday, March 15, 2013

  Actual Average Record
Temperature  
Mean Temperature 54 °F 64 °F  
Max Temperature 69 °F 74 °F 89 °F (1971)
Min Temperature 38 °F 54 °F 32 °F (1993)
Degree Days  
Heating Degree Days 11 3  
Month to date heating degree days 147 58  
Since 1 July heating degree days 613 740  
Cooling Degree Days 0 2  
Month to date cooling degree days 0 30  
Year to date cooling degree days 133 95  
Growing Degree Days 3 (Base 50)    
Moisture  
Dew Point 36 °F    
Average Humidity 59    
Maximum Humidity 96    
Minimum Humidity 22    
Precipitation  
Precipitation 0.00 in 0.14 in 2.48 in (1983)
Month to date precipitation 0.03 1.98  
Year to date precipitation 1.91 7.50  
Sea Level Pressure  
Sea Level Pressure 30.24 in    
Wind  
Wind Speed 4 mph (North)    
Max Wind Speed 14 mph    
Max Gust Speed 20 mph    
Visibility 10 miles    
Events      
T = Trace of Precipitation, MM = Missing Value Source: NWS Daily Summary

Daily Weather History Graph

Daily Weather History Graph

Search for Another Location

Airport:

Trip Planner

Search our weather history database for the weather conditions in past years. The results will help you decide how hot, cold, wet, or windy it might be!

Date:

Astronomy

Mar. 15, 2013 Rise Set
Actual Time 7:33 AM EDT 7:32 PM EDT
Civil Twilight 7:10 AM EDT 7:56 PM EDT
Nautical Twilight 6:42 AM EDT 8:24 PM EDT
Astronomical Twilight 6:14 AM EDT 8:51 PM EDT
Moon 9:43 AM EDT (3/15) 11:23 PM EDT (3/15)
Length of Visible Light 12h 46m
Length of Day
11h 59m
Waxing Crescent, 15% of the Moon is Illuminated
Mar 15
Waxing Crescent
Mar 19
First Quarter
Mar 27
Full
Apr 3
Last Quarter
Apr 10
New

Hourly Weather History & Observations

Time (EDT) Temp. Windchill Dew Point Humidity Pressure Visibility Wind Dir Wind Speed Gust Speed Precip Events Conditions
12:53 AM 42.1 °F - 37.9 °F 85% 30.27 in 10.0 mi Calm Calm - N/A   Clear
1:53 AM 41.0 °F - 37.0 °F 86% 30.27 in 10.0 mi Calm Calm - N/A   Clear
2:53 AM 39.9 °F 36.7 °F 36.0 °F 86% 30.26 in 10.0 mi WNW 4.6 mph - N/A   Clear
3:53 AM 42.1 °F 39.2 °F 37.0 °F 82% 30.25 in 10.0 mi WNW 4.6 mph - N/A   Clear
4:53 AM 42.1 °F 39.2 °F 36.0 °F 79% 30.24 in 10.0 mi NW 4.6 mph - N/A   Clear
5:53 AM 37.9 °F - 35.1 °F 89% 30.24 in 10.0 mi Calm Calm - N/A   Clear
6:53 AM 39.0 °F - 37.0 °F 93% 30.27 in 10.0 mi Calm Calm - N/A   Clear
7:53 AM 39.0 °F - 37.0 °F 93% 30.28 in 6.0 mi Calm Calm - N/A   Clear
8:53 AM 43.0 °F - 41.0 °F 93% 30.30 in 8.0 mi Calm Calm - N/A   Partly Cloudy
9:53 AM 51.1 °F - 39.0 °F 63% 30.30 in 10.0 mi WNW 3.5 mph - N/A   Clear
10:53 AM 59.0 °F - 32.0 °F 36% 30.30 in 10.0 mi NNW 3.5 mph - N/A   Clear
11:53 AM 64.0 °F - 24.1 °F 22% 30.29 in 10.0 mi NNW 9.2 mph - N/A   Clear
12:53 PM 66.9 °F - 28.0 °F 23% 30.27 in 10.0 mi NE 3.5 mph 17.3 mph N/A   Clear
1:53 PM 66.0 °F - 28.9 °F 25% 30.25 in 10.0 mi NE 8.1 mph - N/A   Clear
2:53 PM 69.1 °F - 35.1 °F 29% 30.22 in 10.0 mi NNE 10.4 mph - N/A   Clear
3:53 PM 68.0 °F - 35.1 °F 30% 30.20 in 10.0 mi NNE 11.5 mph - N/A   Clear
4:53 PM 66.0 °F - 35.1 °F 32% 30.18 in 10.0 mi NE 9.2 mph - N/A   Partly Cloudy
5:53 PM 64.0 °F - 37.0 °F 37% 30.18 in 10.0 mi East 6.9 mph - N/A   Partly Cloudy
6:53 PM 62.1 °F - 37.0 °F 39% 30.18 in 10.0 mi East 5.8 mph - N/A   Clear
7:53 PM 57.0 °F - 39.0 °F 51% 30.18 in 10.0 mi Calm Calm - N/A   Clear
8:53 PM 53.1 °F - 42.1 °F 66% 30.19 in 10.0 mi Calm Calm - N/A   Clear
9:53 PM 52.0 °F - 42.1 °F 69% 30.19 in 10.0 mi Calm Calm - N/A   Clear
10:53 PM 51.1 °F - 41.0 °F 68% 30.20 in 10.0 mi SSW 4.6 mph - N/A   Clear
11:53 PM 50.0 °F - 39.9 °F 68% 30.20 in 10.0 mi SSW 4.6 mph - N/A   Clear